User: anonymous   Login
Location: Houston
(29.7630°N, 95.3630°W)
Time: 06:46:19
(UTC-05:00)
Language:

Saudisat 1A - Orbit

View from above orbital plane
View from above orbital plane
View from above satellite
View from above satellite

Ground track
Ground track

The orbit data is extracted from the following two-line orbital elements,

1 26546U 00057B   15146.16681880  .00000496  00000-0  67916-4 0  9992
2 26546 064.5536 170.8051 0029241 316.2321 043.6471 14.89491877794454
Epoch (UTC): 26 May 2015 04:00:13
Eccentricity: 0.0029241
inclination: 64.5536°
perigee height: 579 km
apogee height: 620 km
right ascension of ascending node: 170.8051°
argument of perigee: 316.2321°
revolutions per day: 14.89491877
mean anomaly at epoch: 43.6471°
orbit number at epoch: 79445

The dashed part of the orbit path shows where the satellite is in the earth's shadow,  

DLR